カタログに戻る

STARLINK-34743

運用中通信SSO
NORAD 64937·PAYLOAD·🇺🇸 United States

打ち上げ Jul 26, 2025 から Vandenberg Space Force Base

Loading…

次のパス (今後24時間)

TLE

最新Source: CelesTrak SupGP

元期: Sep 14, 2026, 20:59 UTC

1 64937C 25158F   26257.87479167  .00019711  00000+0  61214-3 0  2573
2 64937  97.2851 116.2292 0001673  96.1522 212.0332 15.33415624    16

AllMySatでSTARLINK-34743をリアルタイム追跡

Download on the App Store